[[{"header":{"parameterUnit":"m.s-1","parameterCategory":1,"la1":30.2991,"la2":30.254,"lo1":-89.0895,"lo2":-89.0444,"dy":0.0017,"dx":0.0017,"nx":28,"ny":28,"refTime":"2025-09-01T09:00:00:Z","depth":0,"parameterNumber":2,"parameterNumberName":"U-component_of_WINDS"},"data":[0,0,0,0,0,0,0,0,0,0,0,0,0,0,0,0,0,0,0,0,0,0,0,0,0,0,0,0,0,0,0,0,0,0,0,0,0,0,0,0,0,0,0,0,0,0,0,0,0,0,0,0,0,0,0,0,0,0,-1.5503,-1.5504,0,-1.5581,-1.5582,-1.5583,-1.5524,-1.5521,-1.5518,-1.5516,-1.5597,-1.5601,-1.5606,0,0,0,0,0,0,0,0,0,0,0,0,0,-1.5305,-1.5309,-1.5503,-1.5504,-1.5505,-1.5581,-1.5582,-1.5583,-1.5524,-1.5521,-1.5518,-1.5515,-1.5596,-1.5601,-1.5606,0,0,0,0,0,0,0,0,0,0,0,0,0,-1.5388,-1.531,-1.5503,-1.5485,-1.5484,-1.5581,-1.5582,-1.5583,-1.5525,-1.5521,-1.5517,-1.5513,-1.5594,-1.56,-1.5607,-1.5727,0,0,-1.5628,-1.5631,0,0,0,0,0,0,0,0,-1.5383,-1.5395,-1.5487,-1.5486,-1.5486,-1.5539,-1.5542,-1.5632,-1.5526,-1.5509,-1.5516,-1.5511,-1.5581,-1.5588,-1.5612,-1.573,-1.5734,-1.5629,-1.5633,-1.5636,-1.5638,0,0,0,0,0,0,0,-1.5377,-1.5391,-1.5534,-1.5488,-1.5487,-1.5473,-1.5481,-1.5558,-1.5566,-1.551,-1.5506,-1.5516,-1.558,-1.5605,-1.5613,-1.5735,-1.5628,-1.5635,-1.5639,-1.5641,-1.5957,-1.5961,0,0,0,0,0,0,-1.5373,-1.5387,-1.5532,-1.5536,-1.5424,-1.548,-1.5488,-1.5526,-1.5565,-1.5567,-1.5519,-1.5513,-1.5595,-1.5605,-1.5616,-1.5759,-1.5636,-1.5642,-1.5646,-1.5953,-1.5958,-1.5962,0,0,0,0,0,0,-1.5369,-1.5387,-1.5529,-1.5461,-1.5478,-1.5487,-1.553,-1.5529,-1.5554,-1.5572,-1.5573,-1.5544,-1.5593,-1.5606,-1.57,-1.5761,-1.5645,-1.5651,-1.5947,-1.5954,-1.596,-1.6047,0,0,0,0,0,0,-1.5364,-1.5386,-1.5431,-1.5462,-1.5481,-1.5611,-1.5533,-1.5533,-1.5566,-1.5559,-1.5595,-1.5597,-1.5591,-1.569,-1.5706,-1.5769,-1.5657,-1.5942,-1.595,-1.5958,-1.6039,-1.6056,-1.607,0,0,0,0,0,-1.5357,-1.5453,-1.5434,-1.5451,-1.5538,-1.5615,-1.5626,-1.5616,-1.5571,-1.5617,-1.5628,-1.5596,-1.5751,-1.57,-1.5718,-1.5783,-1.5938,-1.5948,-1.5957,-1.6032,-1.6053,-1.607,0,0,0,0,0,0,-1.5429,-1.5456,-1.5436,-1.5544,-1.5578,-1.5605,-1.5662,-1.5638,-1.5685,-1.5677,-1.5662,-1.5671,-1.577,-1.5785,-1.5728,-1.5901,-1.5838,-1.5851,-1.5888,-1.5908,-1.5923,-1.5919,-1.5662,0,0,0,0,0,-1.5457,-1.5517,-1.5537,-1.5631,-1.5649,-1.5653,-1.5686,-1.5675,-1.571,-1.5724,-1.5741,-1.5776,-1.5833,-1.5871,-1.5924,-1.604,-1.6048,-1.6094,-1.611,-1.6122,-1.6135,-1.6199,-1.622,-1.5994,-1.5994,-1.5994,0,0,-1.5517,-1.5539,-1.5578,-1.5646,-1.5671,-1.5734,-1.5665,-1.5734,-1.5781,-1.5734,-1.5824,-1.5838,-1.5876,-1.5982,-1.603,-1.5998,-1.6199,-1.6135,-1.6145,-1.6151,-1.6211,-1.6233,-1.6252,-1.6,-1.5999,-1.5998,0,0,-1.5658,-1.568,-1.5761,-1.5787,-1.5825,-1.5827,-1.5847,-1.5878,-1.5885,-1.5975,-1.5942,-1.5996,-1.6094,-1.6123,-1.6151,-1.6302,-1.6275,-1.6319,-1.6402,-1.6465,-1.6483,-1.6499,-1.6555,-1.6575,-1.6332,-1.6332,-1.6332,0,-1.5728,-1.582,-1.5806,-1.5878,-1.591,-1.5869,-1.5952,-1.5978,-1.6032,-1.6055,-1.6018,-1.614,-1.6163,-1.6276,-1.6313,-1.6335,-1.6358,-1.6317,-1.6481,-1.6497,-1.6512,-1.6565,-1.6586,-1.6337,-1.6337,-1.6336,-1.6335,0,-1.5905,-1.597,-1.6031,-1.6084,-1.6122,-1.6199,-1.6197,-1.6237,-1.6223,-1.6228,-1.6321,-1.6346,-1.6404,-1.6429,-1.6416,-1.6541,-1.652,-1.6483,-1.6419,-1.6539,-1.6589,-1.6609,-1.6345,-1.6343,-1.6341,-1.634,0,0,-1.6096,-1.6139,-1.6162,-1.6186,-1.6224,-1.6275,-1.6349,-1.6406,-1.6442,-1.6479,-1.6543,-1.6626,-1.6592,-1.6623,-1.6612,-1.6667,-1.6788,-1.6623,-1.6624,-1.6655,-1.6928,-1.6958,-1.6982,-1.6768,-1.6772,-1.6775,-1.6926,0,-1.624,-1.6371,-1.636,-1.6484,-1.6545,-1.6507,-1.6572,-1.6603,-1.6611,-1.6663,-1.6671,-1.6731,-1.668,-1.6699,-1.6751,-1.6762,-1.6843,-1.675,-1.6829,-1.6832,-1.6824,-1.7008,-1.7039,-1.718,-1.6945,-1.6948,-1.6951,0,-1.6427,-1.6472,-1.6602,-1.6632,-1.6657,-1.6716,-1.6767,-1.6817,-1.6852,-1.6853,-1.6888,-1.6868,-1.6944,-1.6877,-1.6982,-1.692,-1.6951,-1.6961,-1.6966,-1.6976,-1.6901,-1.7024,-1.7225,-1.7247,-1.6981,-1.6978,-1.6976,0,-1.6556,-1.6648,-1.6738,-1.6759,-1.6796,-1.6839,-1.6856,-1.6887,-1.6921,-1.6966,-1.6988,-1.7041,-1.7071,-1.7112,-1.7107,-1.7058,-1.7216,-1.7147,-1.722,-1.7221,-1.7257,-1.7256,-1.7469,-1.7273,-1.7273,-1.7273,-1.7272,0,-1.672,-1.6802,-1.6797,-1.6853,-1.6943,-1.6929,-1.7019,-1.7032,-1.7059,-1.7117,-1.7086,-1.7142,-1.7131,-1.7186,-1.7182,-1.7271,-1.7284,-1.7289,-1.7287,-1.7293,-1.7293,-1.7315,-1.7306,-1.7278,-1.7277,-1.7276,-1.7275,0,-1.688,-1.688,-1.6976,-1.7003,-1.7011,-1.7077,-1.71,-1.7153,-1.7157,-1.7231,-1.7247,-1.7254,-1.7317,-1.7316,-1.7388,-1.7385,-1.7495,-1.7481,-1.7484,-1.7482,-1.7556,-1.755,-1.7793,-1.7825,-1.7607,-1.7609,-1.7611,0,-1.6987,-1.7049,-1.7082,-1.7118,-1.7138,-1.7197,-1.7232,-1.7221,-1.7259,-1.7303,-1.7351,-1.7411,-1.7459,-1.7562,-1.7574,-1.7629,-1.7618,-1.7699,-1.7626,-1.763,-1.7622,-1.7619,-1.7626,-1.7714,-1.7716,-1.7718,-1.772,0,-1.7176,-1.7172,-1.7224,-1.7276,-1.7319,-1.736,-1.7397,-1.7428,-1.7421,-1.7465,-1.7529,-1.7566,-1.764,-1.7701,-1.7753,-1.7771,-1.7746,-1.7742,-1.7763,-1.7771,-1.7771,-1.7774,-1.7526,-1.7738,-1.7736,-1.7735,-1.7734,-1.7733,-1.7314,-1.7368,-1.74,-1.7458,-1.7485,-1.752,-1.7572,-1.7582,-1.7635,-1.7694,-1.7683,-1.7756,-1.7789,-1.7857,-1.788,-1.7937,-1.7908,-1.7937,-1.7945,-1.7953,-1.7962,-1.7759,-1.7946,-1.7945,-1.7945,-1.7945,-1.7944,0,-1.7503,-1.7522,-1.7576,-1.7629,-1.7675,-1.7645,-1.7684,-1.7726,-1.779,-1.7822,-1.787,-1.7944,-1.8003,-1.8019,-1.8076,-1.8118,-1.8108,-1.8134,-1.8132,-1.8137,-1.7983,-1.7961,-1.8141,-1.8141,-1.8141,-1.8141,-1.8141,-1.8141,-1.7608,-1.7698,-1.7698,-1.7801,-1.7819,-1.7889,-1.7915,-1.7947,-1.7973,-1.8058,-1.8106,-1.8116,-1.8142,-1.82,-1.8253,-1.8256,-1.828,-1.8311,-1.831,-1.8167,-1.8147,-1.8129,-1.8108,-1.8316,-1.8316,-1.8459,-1.846,-1.8461]},{"header":{"parameterUnit":"m.s-1","parameterCategory":1,"la1":30.2991,"la2":30.254,"lo1":-89.0895,"lo2":-89.0444,"dy":0.0017,"dx":0.0017,"nx":28,"ny":28,"refTime":"2025-09-01T09:00:00:Z","depth":0,"parameterNumber":3,"parameterNumberName":"V-component_of_WINDS"},"data":[0,0,0,0,0,0,0,0,0,0,0,0,0,0,0,0,0,0,0,0,0,0,0,0,0,0,0,0,0,0,0,0,0,0,0,0,0,0,0,0,0,0,0,0,0,0,0,0,0,0,0,0,0,0,0,0,0,0,-3.5223,-3.5224,0,-3.5306,-3.5307,-3.5308,-3.5293,-3.5292,-3.529,-3.5289,-3.5369,-3.5373,-3.5376,0,0,0,0,0,0,0,0,0,0,0,0,0,-3.5049,-3.5052,-3.5223,-3.5224,-3.5225,-3.5306,-3.5307,-3.5308,-3.5294,-3.5292,-3.529,-3.5288,-3.5368,-3.5372,-3.5376,0,0,0,0,0,0,0,0,0,0,0,0,0,-3.5127,-3.5053,-3.5223,-3.5228,-3.5229,-3.5305,-3.5307,-3.5308,-3.5294,-3.5292,-3.529,-3.5288,-3.5367,-3.5372,-3.5377,-3.5452,0,0,-3.5393,-3.5395,0,0,0,0,0,0,0,0,-3.5123,-3.5134,-3.5226,-3.5228,-3.5229,-3.5287,-3.5275,-3.5356,-3.5295,-3.5269,-3.5289,-3.5287,-3.5343,-3.535,-3.5371,-3.5456,-3.5459,-3.5393,-3.5397,-3.5399,-3.54,0,0,0,0,0,0,0,-3.5117,-3.513,-3.5256,-3.5228,-3.523,-3.5225,-3.5233,-3.529,-3.5317,-3.5271,-3.527,-3.5281,-3.5344,-3.5366,-3.5372,-3.5461,-3.5393,-3.5398,-3.5401,-3.5403,-3.561,-3.5613,0,0,0,0,0,0,-3.5111,-3.5126,-3.5253,-3.5258,-3.517,-3.523,-3.5239,-3.5271,-3.5317,-3.5322,-3.5282,-3.528,-3.5358,-3.5366,-3.5375,-3.5465,-3.5399,-3.5404,-3.5407,-3.5608,-3.5611,-3.5614,0,0,0,0,0,0,-3.5107,-3.5123,-3.525,-3.5192,-3.5208,-3.5235,-3.527,-3.5273,-3.5295,-3.5325,-3.5329,-3.53,-3.5356,-3.5368,-3.5433,-3.5468,-3.5406,-3.5411,-3.5605,-3.5609,-3.5612,-3.5647,0,0,0,0,0,0,-3.5102,-3.5121,-3.5151,-3.5193,-3.5211,-3.5308,-3.5272,-3.5277,-3.5305,-3.5302,-3.5343,-3.5347,-3.5356,-3.5425,-3.5438,-3.5474,-3.5415,-3.5602,-3.5607,-3.5611,-3.5642,-3.5651,-3.5658,0,0,0,0,0,-3.5096,-3.5157,-3.5153,-3.5168,-3.5249,-3.531,-3.532,-3.533,-3.5308,-3.5337,-3.5356,-3.5346,-3.5462,-3.5432,-3.5447,-3.5484,-3.56,-3.5606,-3.5611,-3.5639,-3.5649,-3.5658,0,0,0,0,0,0,-3.5118,-3.5163,-3.5158,-3.5235,-3.5269,-3.5308,-3.5345,-3.5341,-3.5381,-3.5376,-3.5385,-3.5394,-3.546,-3.5479,-3.5445,-3.5559,-3.5528,-3.5536,-3.5544,-3.5554,-3.5562,-3.5555,-3.5419,0,0,0,0,0,-3.5132,-3.5179,-3.5215,-3.5279,-3.5296,-3.5318,-3.5345,-3.5349,-3.5384,-3.5398,-3.5422,-3.5455,-3.5499,-3.5528,-3.557,-3.5645,-3.5653,-3.5678,-3.5686,-3.5692,-3.5699,-3.5739,-3.575,-3.5631,-3.5631,-3.5631,0,0,-3.516,-3.519,-3.522,-3.5284,-3.5311,-3.5358,-3.533,-3.5381,-3.5416,-3.5406,-3.5469,-3.5488,-3.5525,-3.5596,-3.5628,-3.5613,-3.5734,-3.5699,-3.5704,-3.5707,-3.5745,-3.5757,-3.5767,-3.5635,-3.5634,-3.5634,0,0,-3.5236,-3.5265,-3.532,-3.5348,-3.539,-3.5404,-3.5417,-3.5457,-3.5469,-3.5533,-3.5526,-3.5567,-3.5643,-3.567,-3.5693,-3.5779,-3.577,-3.5792,-3.5833,-3.5871,-3.5881,-3.5889,-3.5918,-3.5929,-3.5799,-3.5799,-3.5799,0,-3.5266,-3.5338,-3.5349,-3.5401,-3.5429,-3.5423,-3.5479,-3.5505,-3.5557,-3.5576,-3.5559,-3.5654,-3.5679,-3.5755,-3.5776,-3.5796,-3.581,-3.5787,-3.5879,-3.5887,-3.5895,-3.5923,-3.5934,-3.5802,-3.5801,-3.5801,-3.5801,0,-3.5372,-3.5422,-3.5462,-3.5514,-3.5546,-3.56,-3.5617,-3.5649,-3.565,-3.5666,-3.573,-3.576,-3.5808,-3.5826,-3.5828,-3.5902,-3.5892,-3.5877,-3.5846,-3.5909,-3.5935,-3.5946,-3.5805,-3.5804,-3.5804,-3.5803,0,0,-3.5463,-3.5521,-3.5535,-3.5559,-3.5604,-3.5642,-3.5695,-3.5743,-3.5769,-3.5805,-3.5848,-3.5913,-3.5899,-3.5926,-3.5931,-3.5965,-3.6029,-3.5946,-3.5947,-3.5959,-3.6111,-3.6121,-3.6134,-3.6025,-3.6027,-3.6028,-3.6108,0,-3.5542,-3.5637,-3.5648,-3.5731,-3.5777,-3.5772,-3.5818,-3.585,-3.5865,-3.5905,-3.5922,-3.5967,-3.5946,-3.5962,-3.5996,-3.6014,-3.606,-3.6009,-3.6063,-3.6065,-3.6052,-3.6148,-3.6158,-3.6232,-3.6118,-3.612,-3.6121,0,-3.5647,-3.5688,-3.5776,-3.5815,-3.5834,-3.5875,-3.592,-3.5958,-3.5994,-3.6003,-3.6033,-3.6033,-3.6086,-3.6053,-3.6125,-3.609,-3.6113,-3.6125,-3.6128,-3.6132,-3.6096,-3.6153,-3.6256,-3.6266,-3.6138,-3.6137,-3.6135,0,-3.5703,-3.578,-3.5842,-3.5863,-3.591,-3.5938,-3.5959,-3.5993,-3.602,-3.6059,-3.6077,-3.612,-3.6144,-3.6177,-3.6188,-3.6164,-3.6259,-3.6228,-3.6266,-3.6265,-3.6285,-3.6283,-3.6391,-3.6302,-3.6302,-3.6302,-3.6301,0,-3.579,-3.5843,-3.5868,-3.5906,-3.5966,-3.5978,-3.6036,-3.6055,-3.6085,-3.6126,-3.6124,-3.6162,-3.6175,-3.6215,-3.6224,-3.6281,-3.6292,-3.6299,-3.6301,-3.6299,-3.6298,-3.6313,-3.6307,-3.6304,-3.6304,-3.6303,-3.6303,0,-3.5861,-3.5881,-3.5948,-3.5987,-3.5998,-3.604,-3.6073,-3.6109,-3.6125,-3.6176,-3.6189,-3.6212,-3.6259,-3.6274,-3.633,-3.6336,-3.6402,-3.64,-3.6391,-3.639,-3.6427,-3.6423,-3.6548,-3.6564,-3.6465,-3.6466,-3.6467,0,-3.5915,-3.5956,-3.6,-3.6028,-3.605,-3.6095,-3.6124,-3.6136,-3.6166,-3.621,-3.624,-3.6287,-3.6324,-3.6399,-3.642,-3.6462,-3.646,-3.6501,-3.6466,-3.6463,-3.6459,-3.6456,-3.6459,-3.6507,-3.6508,-3.6509,-3.6509,0,-3.6007,-3.6014,-3.6056,-3.6102,-3.6136,-3.6172,-3.6207,-3.6229,-3.6247,-3.628,-3.6329,-3.6358,-3.6416,-3.6461,-3.6505,-3.6524,-3.6519,-3.652,-3.6531,-3.6529,-3.6521,-3.6524,-3.6407,-3.6517,-3.6516,-3.6516,-3.6515,-3.6515,-3.607,-3.6107,-3.6143,-3.619,-3.6217,-3.625,-3.6286,-3.6306,-3.6347,-3.6396,-3.64,-3.6452,-3.6486,-3.6543,-3.6565,-3.6605,-3.6593,-3.6609,-3.6613,-3.6616,-3.6618,-3.6516,-3.6613,-3.6612,-3.6612,-3.6612,-3.6612,0,-3.6161,-3.6185,-3.6228,-3.6277,-3.6313,-3.6307,-3.6345,-3.6375,-3.6421,-3.6454,-3.6491,-3.6546,-3.659,-3.6615,-3.6659,-3.6686,-3.6684,-3.6696,-3.6694,-3.6698,-3.6627,-3.6613,-3.6697,-3.6697,-3.6697,-3.6697,-3.6697,-3.6697,-3.6213,-3.6273,-3.6285,-3.6359,-3.6381,-3.6433,-3.6455,-3.6484,-3.651,-3.6572,-3.6609,-3.6626,-3.6654,-3.67,-3.674,-3.6746,-3.6761,-3.6775,-3.6779,-3.6712,-3.6703,-3.6695,-3.6681,-3.6778,-3.6778,-3.6847,-3.6847,-3.6848]}]]